Weather Roundup
Issued by NWS

Home | Current Version | Previous Version | Text Only | Print | Product List | Glossary On
Versions: 1 2 3 4 5 6 7 8 9 10 11 12 13 14 15 16 17 18 19 20 21 22 23 24 25 26 27 28 29 30 31 32 33 34 35 36 37 38 39 40 41 42 43 44 45 46 47 48 49 50
000
NZUS93 KARX 041610
HRRWXR

CURRENT HOURLY OBSERVATIONS ACROSS
MUCH OF THE UPPER MISSISSIPPI VALLEY
NATIONAL WEATHER SERVICE LA CROSSE WI
1100 AM CDT WED MAY 04 2016


...SOUTHEAST MINNESOTA...


CITY           SKY/WX    TMP DP  RH WIND       PRES   REMARKS
ROCHESTER      MOSUNNY   56  35  45 NW21G29   29.95F
ROCHESTER/MAYO FAIR      54  31  41 NW12G22   29.95F
WINONA         MOSUNNY   55  34  44 N15G22    29.92F
AUSTIN         SUNNY     55  32  41 N20G25    29.96F
ALBERT LEA     SUNNY     55  28  35 N16G24    29.97F
DODGE CENTER   MOSUNNY   55  30  38 N16G25    29.96S
PRESTON        MOSUNNY   53  33  47 N18G26    29.94S
OWATONNA       SUNNY     55  30  38 N17G28    29.98S
FARIBAULT      SUNNY     57  32  38 NW16      29.99F
$$

...ELSEWHERE IN MINNESOTA...


CITY           SKY/WX    TMP DP  RH WIND       PRES   REMARKS
MINNEAPOLIS    MOSUNNY   59  34  39 N15G23    29.98F
INTNL FALLS    SUNNY     50  23  34 NE12      30.04S
DULUTH         SUNNY     53  25  33 N15G24    29.96R
RED WING       MOSUNNY   55  30  38 N14G25    29.96R
REDWOOD FALLS  SUNNY     59  32  36 N13G22    30.03F
MANKATO        SUNNY     57  32  38 N16G25    30.00F
WORTHINGTON    SUNNY     55  34  45 N14       30.07S
FAIRMONT       SUNNY     55  32  41 NW14G22   30.02S
$$

...SOUTHWEST WISCONSIN...


CITY           SKY/WX    TMP DP  RH WIND       PRES   REMARKS
LA CROSSE      MOSUNNY   58  35  42 N21       29.90S
PRAIRIE DU CHI SUNNY     56  32  40 NW18G24   29.89S
LONE ROCK      SUNNY     56  34  43 N22G30    29.85S
PLATTEVILLE    MOSUNNY   54  40  57 NW21G35   29.85S
FORT MC COY    MOSUNNY   54  34  45 N14G29    29.89S
CAMP DOUGLAS   MOSUNNY   55  39  54 NW17G30   29.85S
MAUSTON-NEW LI SUNNY     54  32  43 NW21      29.84S
VIROQUA        FAIR      52  34  50 NW21G28   29.88S
WIS DELLS      SUNNY     53  32  46 N14G23    29.84R
$$

...ELSEWHERE IN WISCONSIN...


CITY           SKY/WX    TMP DP  RH WIND       PRES   REMARKS
MILWAUKEE      CLOUDY    48  35  60 NW16G26   29.77R
MADISON        PTSUNNY   51  38  60 N17G26    29.81S
GREEN BAY      CLOUDY    47  35  63 N24G32    29.81R
EAU CLAIRE     MOSUNNY   55  32  41 N22G29    29.92S
BLACK RVR FLS  PTSUNNY   56  31  39 NW17      29.89S
MEDFORD        SUNNY     50  30  46 N16G23    29.86S
WAUSAU         SUNNY     53  27  36 N16G28    29.83S
WIS RAPIDS     SUNNY     54  31  41 N17G25    29.86S
MARSHFIELD     SUNNY     54  32  43 N16G26    29.85S
RICE LAKE      MOSUNNY   54  30  39 N21G30    29.94F
$$

...NORTHEAST IOWA...


CITY           SKY/WX    TMP DP  RH WIND       PRES   REMARKS
WATERLOO       MOSUNNY   57  35  43 N18G30    29.94S
DUBUQUE        SUNNY     53  38  56 N20G29    29.86S
DECORAH        MOSUNNY   54  36  50 N17G29    29.91S
MASON CITY     SUNNY     57  34  41 NW18G28   29.99S
CHARLES CITY   SUNNY     57  32  38 N17G29    29.95F
OELWEIN        MOSUNNY   55  34  44 N21G28    29.93S
$$

...ELSEWHERE IN IOWA...


CITY           SKY/WX    TMP DP  RH WIND       PRES   REMARKS
DES MOINES     MOSUNNY   60  35  39 N14G23    29.98R
IOWA CITY      SUNNY     57  37  47 N14G26    29.92R
FORT DODGE     SUNNY     57  34  41 N9G18     30.02S
MARSHALLTOWN   SUNNY     57  36  45 N17G32    29.96R
CEDAR RAPIDS   MOSUNNY   56  40  55 N15       29.90S
$$

...NORTHERN ILLINOIS...


CITY           SKY/WX    TMP DP  RH WIND       PRES   REMARKS
CHICAGO-OHARE  PTSUNNY   49  38  65 NW17G25   29.77R
CHICAGO-MIDWAY CLOUDY    50  37  61 N16G24    29.76R
MOLINE         SUNNY     57  39  51 N14G26    29.85R
ROCKFORD       PTSUNNY   51  38  60 N13G23    29.83S
PEORIA         PTSUNNY   56  41  57 N16G22    29.81R
$$

NOTE: "FAIR" INDICATES FEW OR NO CLOUDS BELOW 12,000 FEET WITH NO
SIGNIFICANT WEATHER AND/OR OBSTRUCTIONS TO VISIBILITY. WIND
SPEEDS ARE IN MILES-PER-HOUR.




USA.gov is the U.S. government's official web portal to all federal, state and local government web resources and services.